Location: Dehesa de la Cepeda
(40.6574°N, 4.3013°W)
Time: 21:13:26
(UTC+00:00)

Vanguard 2 Rocket - Pass Details

Date: 13 August 2021
Orbit: 556 x 3324 km, 32.9° (Epoch: 19 September)

Event Time Altitude Azimuth Distance (km) Brightness Sun altitude
Rises 23:22:08 0° 189° (S) 6,949 - -33.3°
Reaches altitude 10° 23:32:51 10° 160° (SSE) 5,236 - -33.8°
Maximum altitude 23:35:52 11° 148° (SSE) 4,909 - -34.0°
Drops below altitude 10° 23:38:38 10° 136° (SE) 4,725 - -34.1°
Sets 23:45:59 0° 103° (ESE) 4,950 - -34.4°
